Regional Weather Roundup
Issued by NWS

Home | Current Version | Previous Version | Text Only | Print | Product List | Glossary Off
Versions: 1 2 3 4 5 6 7 8 9 10 11 12 13 14 15 16 17 18 19 20 21 22 23 24 25 26 27 28 29 30 31 32 33 34 35 36 37 38 39 40 41 42 43 44 45 46 47 48 49 50

000
ASUS43 KLSX 272157
RWRMO

WEATHER SUMMARY FOR MISSOURI
NATIONAL WEATHER SERVICE SPRINGFIELD MO
500 PM CDT SAT MAY 27 2017

NOTE: "FAIR" INDICATES FEW OR NO CLOUDS BELOW 12,000 FEET WITH NO
       SIGNIFICANT WEATHER AND/OR OBSTRUCTIONS TO VISIBILITY.
       CURRENT SKY AND/OR WEATHER CONDITIONS ARE NOT AVAILABLE FOR
       CHILLICOTHE AND FARMINGTON.

MOZ001>031-035>038-043-044-053-054-272300-
...NORTHERN AND WESTERN MISSOURI...

CITY           SKY/WX    TMP DP  RH WIND       PRES   REMARKS
KANSAS CTY INT TSTM      69  64  84 NW5       29.84R
LEE`S SUMMIT   CLOUDY    69  62  78 N8        29.83R
ST JOSEPH      PTSUNNY   73  65  75 CALM      29.84R
CHILLICOTHE      N/A     75  63  66 VRB3      29.82R

$$
MOZ066>068-077>081-088>096-101>105-272300-
...SOUTHWEST MISSOURI...

CITY           SKY/WX    TMP DP  RH WIND       PRES   REMARKS
SPRINGFIELD    MOSUNNY   74  67  78 NE7       29.80R
JOPLIN         CLOUDY    79  72  79 NE12      29.74S
BRANSON        PTSUNNY   86  72  62 S9        29.80S HX  92

$$
MOZ032>034-039>042-045>050-055>058-069>072-272300-
...CENTRAL MISSOURI...

CITY           SKY/WX    TMP DP  RH WIND       PRES   REMARKS
COLUMBIA       CLOUDY    63  62  97 SE16      29.80R
JEFFERSON CITY CLOUDY    67  60  78 E17       29.77F
ROLLA          TSTM      62  32  32 NE10G18   29.83F
SEDALIA        CLOUDY    65  64  97 SE9       29.82R
WARRENSBURG    CLOUDY    66  61  82 CALM      29.81R

$$
MOZ051-052-059>065-272300-
...EAST CENTRAL MISSOURI...

CITY           SKY/WX    TMP DP  RH WIND       PRES   REMARKS
ST LOUIS INTL  LGT RAIN  76  68  76 W12       29.89R

$$
MOZ072>076-082>087-097>100-106>115-272300-
...SOUTH CENTRAL AND SOUTHEAST MISSOURI...

CITY           SKY/WX    TMP DP  RH WIND       PRES   REMARKS
CAPE GIRARDEAU CLOUDY    71  59  65 E13       29.85R
POPLAR BLUFF   CLOUDY    82  76  81 S7        29.77F
WEST PLAINS    CLOUDY    72  64  76 N12       29.85R

$$



USA.gov is the U.S. government's official web portal to all federal, state and local government web resources and services.